Location: Beadle
(51.4667°N, 109.0000°W)
Time: 05:14:00
(UTC+00:00)

Envisat - Pass Details

Date: 25 January 2022
Orbit: 764 x 765 km, 98.2° (Epoch: 25 May)

Event Time Altitude Azimuth Distance (km) Brightness Sun altitude
Rises 13:12:47 0° 9° (N) 3,245 6.3 -17.0°
Reaches altitude 10° 13:15:13 10° 2° (N) 2,314 5.4 -16.7°
Maximum altitude 13:19:55 39° 295° (WNW) 1,142 3.4 -16.0°
Drops below altitude 10° 13:24:36 10° 228° (SW) 2,301 5.1 -15.2°
Sets 13:27:00 0° 221° (SW) 3,223 5.9 -14.9°
